Tracking 30995 objects as of 5-Jul-2025
HD Live streaming from Space Station
objects crossing your sky now

SOLRAD 11B AKM

Track SOLRAD 11B AKM now!


NORAD ID: 8753
Int'l Code: 1976-023H
Perigee: 118,637.6 km
Apogee: 126,807.3 km
Inclination: 12.9 °
Period: 7,693.4 minutes
Semi major axis: 129093 km
RCS: Unknown
Launch date: March 15, 1976
Source: United States (US)
Launch site: AIR FORCE EASTERN TEST RANGE (AFETR)

Note: This is a ROCKET BODY
Your satellite tracking list
COSMOS 249 DEB
Track 1 satellite(s)




NASA's NSSDC Master Catalog

Two Line Element Set (TLE):
1 08753U 76023H   25187.25997272 -.00000868  00000-0  00000-0 0  9990
2 08753  12.9331 338.0954 0316423 100.8073   2.2990  0.18717446  4761
Source of the keplerian elements: AFSPC